Weather in Beppu

Japan     33°16′47″N   131°29′45″E
temp.,
°C
wind,
m/s
gust,
m/s
humid.,
%
clouds,
%
prec.,
mm/h
press.,
hPa
HPBL,
m
9 december, thu
thu900:00+6w21810 0.0 103025
03:00+5wnw21804 0.0 102927
06:00+5wnw22819 0.0 102923
09:00+9nne027110 0.0 1030513
12:00+12ene2159100 0.0 1029848
15:00+12ene21581 0.0 1026728
18:00+8wnw118199 0.0 102838
21:00+7wsw1183100 0.0 102819
10 december, fri
fri1000:00+8ssw227084 0.0 102734
03:00+8wsw116797 0.0 102622
06:00+7w2271100 0.0 102623
09:00+9nw117675 0.1 102728
12:00+15se134912 0.0 10251127
15:00+15ne235415 0.0 10231001
18:00+9wnw11861 0.0 102630
21:00+8w21870 0.0 102720
11 december, sat
sat1100:00+8w22845 0.0 102624
03:00+7w22780 0.0 102619
06:00+7w22755 0.0 102619
09:00+11ssw016140 0.0 1027131
12:00+15e224975 0.0 10251014
15:00+15ene21535 0.0 1023585
18:00+9wnw01854 0.0 102526
21:00+8wsw22810 0.0 102523
12 december, sun
sun1200:00+8w227215 0.0 102426
03:00+7w22745 0.0 102328
06:00+8wsw228185 0.0 102234
09:00+12w127191 0.0 1021291
12:00+15w25465 0.0 10201347
15:00+14wnw47485 0.0 10191593
18:00+9wnw36714 0.0 1021274
21:00+7wnw357924 0.0 1022170
13 december, mon
mon1300:00+7w47743 0.0 1021392
03:00+6wnw377374 0.0 1021313
06:00+5nw487131 0.0 1022773
09:00+5wnw36531 0.0 1024859
12:00+8nw36400 0.0 10231158
15:00+9nw45400 0.0 10221188
18:00+3nw34660 0.0 1024148
21:00+2wnw22710 0.0 102562